Location: ActonStarParty
(42.4766°N, 71.4538°W)
Time: 15:25:31
(UTC-04:00)

Amateur Radio Satellites - All Passes

Search period start: 21 September 2017 14:55
Search period end: 22 September 2017 14:55
Location: ActonStarParty, 42.4766°N, 71.4538°W

Satellite Date Start Highest point End Downlink Frequencies (MHz)
Time Altitude Azimuth
AO-7 21 Sep 14:56:12 15:04:28 71° 67° (ENE) 15:12:44 .
YUBILEINY 21 Sep 14:59:31 15:05:34 20° 298° (WNW) 15:11:40 435.215
Oscar 19 21 Sep 15:05:40 15:07:39 12° 272° (W) 15:09:39 437.125/150
MOZHAYETS 4 21 Sep 15:07:58 15:11:20 19° 92° (E) 15:14:40
ITUPSAT 1 21 Sep 15:12:46 15:16:27 21° 93° (E) 15:20:07 437.325
SO-50 21 Sep 15:19:45 15:24:12 62° 306° (NW) 15:28:41 436.795
PCSat 21 Sep 15:25:41 15:31:05 77° 118° (ESE) 15:36:32 145.827
NO-84 21 Sep 15:26:23 15:29:27 25° 331° (NNW) 15:32:19 435.350 FM
BEESAT 21 Sep 15:50:28 15:55:10 51° 100° (E) 15:59:49 436.000
UKube-1 21 Sep 15:59:28 16:02:07 16° 297° (WNW) 16:04:47 .
ITAMSAT 1 21 Sep 16:01:16 16:06:15 48° 260° (W) 16:11:16 435.822/435.867
DX 1 21 Sep 16:02:37 16:03:34 11° 300° (WNW) 16:04:31 434.975-435.025
MOZHAYETS 4 21 Sep 16:44:16 16:48:40 44° 289° (WNW) 16:53:03
ITUPSAT 1 21 Sep 16:49:53 16:54:26 42° 290° (WNW) 16:58:57 437.325
AO-7 21 Sep 16:51:10 16:57:50 26° 266° (W) 17:04:33 .
RS-15 21 Sep 17:00:14 17:09:31 29° 258° (WSW) 17:18:31 29.354- 29.394
HO-68 21 Sep 17:01:07 17:04:30 14° 50° (NE) 17:07:54 435.675
CUBESAT XI-V 21 Sep 17:03:43 17:08:21 65° 101° (E) 17:12:55 437.345
SO-50 21 Sep 17:03:54 17:05:35 12° 327° (NNW) 17:07:15 436.795
XW-2D 21 Sep 17:04:23 17:07:00 18° 67° (ENE) 17:09:38 145.860 - 145.880
NO-84 21 Sep 17:07:39 17:07:46 10° 351° (N) 17:07:54 435.350 FM
PCSat 21 Sep 17:11:09 17:15:05 20° 317° (NW) 17:19:04 145.827
DOVE 4 21 Sep 17:13:08 17:17:38 85° 77° (ENE) 17:21:57 437.250
XW-2B 21 Sep 17:16:09 17:19:12 23° 68° (ENE) 17:22:16 145.730 - 145.750
XW-2F 21 Sep 17:18:09 17:21:12 23° 68° (ENE) 17:24:16 145.980 - 146.000
KKS-1 21 Sep 17:22:11 17:26:15 34° 98° (E) 17:30:17 437.445
BEESAT 21 Sep 17:29:12 17:32:31 19° 297° (WNW) 17:35:51 436.000
CUTE-I 21 Sep 17:31:47 17:36:38 38° 68° (ENE) 17:41:31 437.470
XW-2C 21 Sep 17:36:42 17:40:18 40° 72° (ENE) 17:43:56 145.795 - 145.815
LilacSat-2 21 Sep 17:45:49 17:49:37 56° 74° (ENE) 17:53:26 437.200
NUDT-PHONESAT 21 Sep 17:49:05 17:52:35 39° 73° (ENE) 17:56:08 437.300
STARS 21 Sep 17:53:34 17:57:28 30° 97° (E) 18:01:22 437.465
KAITUO 1B 21 Sep 18:13:21 18:17:09 85° 74° (ENE) 18:20:58 145.475/437.950
SEEDS 21 Sep 18:29:54 18:33:07 21° 67° (ENE) 18:36:20 437.485
XW-2D 21 Sep 18:37:24 18:40:55 34° 263° (W) 18:44:28 145.860 - 145.880
XW-2A 21 Sep 18:42:16 18:44:26 16° 67° (ENE) 18:46:37 145.665 - 145.685
CUBESAT XI-V 21 Sep 18:42:40 18:45:09 14° 298° (WNW) 18:47:37 437.345
HO-68 21 Sep 18:43:52 18:50:55 67° 70° (ENE) 18:58:01 435.675
NO-84 21 Sep 18:45:22 18:46:25 11° 13° (NNE) 18:47:26 435.350 FM
XW-2B 21 Sep 18:50:01 18:53:15 26° 265° (W) 18:56:32 145.730 - 145.750
XW-2F 21 Sep 18:52:00 18:55:12 25° 265° (W) 18:58:27 145.980 - 146.000
CUTE 1.7 + AOD 2 21 Sep 18:52:05 18:56:17 59° 74° (ENE) 19:00:31 437.475
CUBEBUG 2 21 Sep 18:57:00 19:00:52 36° 70° (ENE) 19:04:51 437.445
KKS-1 21 Sep 18:59:05 19:02:36 24° 294° (WNW) 19:06:07 437.445
AAUSAT CUBESAT 2 21 Sep 19:00:01 19:03:05 20° 67° (ENE) 19:06:09 437.432
UWE-3 21 Sep 19:09:07 19:12:48 29° 68° (ENE) 19:16:35 435.000/436.395/437.385
CUTE-I 21 Sep 19:12:12 19:16:44 28° 265° (W) 19:21:18 437.470
XW-2C 21 Sep 19:12:27 19:14:40 15° 268° (W) 19:16:53 145.795 - 145.815
STRAND 1 21 Sep 19:13:38 19:17:18 19° 92° (E) 19:20:55 437.568
LilacSat-2 21 Sep 19:23:15 19:24:13 11° 270° (W) 19:25:12 437.200
NUDT-PHONESAT 21 Sep 19:24:35 19:26:38 14° 268° (W) 19:28:43 437.300
STARS 21 Sep 19:30:02 19:33:41 26° 293° (WNW) 19:37:19 437.465
AO-73 21 Sep 20:00:05 20:04:15 49° 72° (ENE) 20:08:32 145.935
ZACube-1 21 Sep 20:01:26 20:05:39 57° 73° (ENE) 20:10:00 437.345
Oscar 11 21 Sep 20:02:10 20:06:09 37° 71° (ENE) 20:10:11 .
SEEDS 21 Sep 20:04:42 20:08:35 34° 263° (W) 20:12:29 437.485
BEESAT 3 21 Sep 20:07:50 20:11:40 46° 118° (ESE) 20:15:34 437.485
BEESAT 2 21 Sep 20:11:18 20:13:45 16° 110° (ESE) 20:16:12 435.950
XW-2A 21 Sep 20:13:55 20:16:55 29° 263° (W) 20:19:57 145.665 - 145.685
NO-84 21 Sep 20:21:38 20:24:30 40° 34° (NE) 20:27:15 435.350 FM
CUTE 1.7 + AOD 2 21 Sep 20:30:36 20:32:29 13° 270° (W) 20:34:21 437.475
HO-68 21 Sep 20:33:40 20:39:10 24° 268° (W) 20:44:43 435.675
AAUSAT CUBESAT 2 21 Sep 20:34:28 20:38:18 35° 263° (W) 20:42:09 437.432
CUBEBUG 2 21 Sep 20:34:29 20:37:36 20° 268° (W) 20:40:48 437.445
Tancredo 1 21 Sep 20:44:53 20:47:34 78° 325° (NW) 20:50:17 437.200
UWE-3 21 Sep 20:45:39 20:49:14 26° 266° (W) 20:52:54 435.000/436.395/437.385
AO-85 21 Sep 20:46:18 20:49:55 38° 117° (ESE) 20:53:35 145.980
Max Valier Satellite 21 Sep 20:48:24 20:50:58 18° 67° (ENE) 20:53:33 145.860
DELFI C3 21 Sep 20:49:31 20:52:50 26° 69° (ENE) 20:56:10 145.870
STRAND 1 21 Sep 20:51:46 20:56:46 53° 289° (WNW) 21:01:45 437.568
nSIGHT-1 21 Sep 20:55:03 20:57:34 21° 134° (SE) 21:00:06 .
UNISAT 6 21 Sep 21:18:45 21:19:15 10° 88° (E) 21:19:45 437.425
FO-29 21 Sep 21:21:09 21:26:10 36° 98° (E) 21:31:37 435.910
AO-73 21 Sep 21:38:13 21:40:46 15° 270° (W) 21:43:23 145.935
Oscar 11 21 Sep 21:39:10 21:42:24 20° 267° (W) 21:45:39 .
ZACube-1 21 Sep 21:40:16 21:42:19 13° 271° (W) 21:44:24 437.345
TIGRISAT 21 Sep 21:40:50 21:43:53 17° 92° (E) 21:46:56 435.000
BEESAT 3 21 Sep 21:46:26 21:49:28 20° 316° (NW) 21:52:31 437.485
ISS 21 Sep 21:46:40 21:49:54 62° 143° (SE) 21:53:10 437.550
BEESAT 2 21 Sep 21:47:10 21:51:05 49° 307° (NW) 21:55:03 435.950
EO-88 21 Sep 21:52:54 21:56:34 84° 78° (ENE) 22:00:16 145.990 - 145.960
ESTCUBE 1 21 Sep 21:53:28 21:53:49 10° 59° (ENE) 21:54:11 437.505/2401.250
NO-84 21 Sep 21:59:47 22:01:34 15° 233° (SW) 22:03:18 435.350 FM
SO-50 21 Sep 22:10:29 22:13:57 21° 42° (NE) 22:17:26 436.795
Tancredo 1 21 Sep 22:20:37 22:22:28 16° 345° (NNW) 22:24:20 437.200
Max Valier Satellite 21 Sep 22:21:15 22:24:33 31° 263° (W) 22:27:55 145.860
DELFI C3 21 Sep 22:24:20 22:27:33 23° 265° (W) 22:30:45 145.870
AO-85 21 Sep 22:27:25 22:30:26 21° 316° (NW) 22:33:31 145.980
nSIGHT-1 21 Sep 22:30:32 22:33:42 48° 332° (NNW) 22:36:52 .
PCSat 21 Sep 22:31:04 22:33:57 14° 37° (NE) 22:36:50 145.827
UNISAT 6 21 Sep 22:51:49 22:56:30 83° 286° (WNW) 23:01:12 437.425
PRISM 21 Sep 22:54:35 22:58:34 53° 101° (E) 23:02:32 437.425
LO-87 21 Sep 22:56:34 23:00:01 61° 75° (ENE) 23:03:32 145.935 - 145.965
FO-29 21 Sep 23:06:30 23:11:12 31° 293° (WNW) 23:16:17 435.910
YUBILEINY 21 Sep 23:08:18 23:16:38 46° 74° (ENE) 23:24:55 435.215
TIGRISAT 21 Sep 23:16:18 23:20:49 51° 287° (WNW) 23:25:22 435.000
ISS 21 Sep 23:23:47 23:26:36 26° 341° (NNW) 23:29:26 437.550
ESTCUBE 1 21 Sep 23:25:19 23:29:52 88° 77° (ENE) 23:34:26 437.505/2401.250
SO-50 21 Sep 23:50:15 23:54:46 60° 240° (WSW) 23:59:20 436.795
Tancredo 1 21 Sep 23:56:31 23:57:49 13° 5° (N) 23:59:08 437.200
DUCHIFAT 1 21 Sep 23:57:02 00:00:00 18° 93° (E) 00:02:57 145.980
VELOX 1 22 Sep 00:04:04 00:08:13 43° 71° (ENE) 00:12:23 145.980
POLYITAN 1 22 Sep 00:06:52 00:10:39 29° 96° (E) 00:14:25 437.675
nSIGHT-1 22 Sep 00:08:16 00:10:36 18° 351° (N) 00:12:55 .
EO-79 22 Sep 00:11:43 00:15:36 33° 97° (E) 00:19:28 145.935-145.965
PCSat 22 Sep 00:12:57 00:18:23 69° 58° (ENE) 00:23:46 145.827
SPROUT 22 Sep 00:19:25 00:23:38 84° 75° (ENE) 00:27:55 437.525
AIST 2D 22 Sep 00:21:07 00:24:37 59° 285° (WNW) 00:28:04 435.315
QB50P2 22 Sep 00:24:20 00:28:32 51° 100° (E) 00:32:42 145.880/145.840
PRISM 22 Sep 00:31:21 00:33:23 14° 297° (WNW) 00:35:25 437.425
UNISAT 6 22 Sep 00:32:07 00:32:26 10° 301° (WNW) 00:32:45 437.425
BUGSAT 1 22 Sep 00:41:14 00:43:38 15° 92° (E) 00:46:01 437.445
M-CUBED/EXP-1 PRIME 22 Sep 00:46:54 00:48:47 14° 98° (E) 00:50:38 437.505
50 SAT 22 Sep 00:47:07 00:50:11 36° 72° (ENE) 00:53:15 437.505
ISS 22 Sep 01:01:41 01:03:53 16° 1° (N) 01:06:06 437.550
NANOSAT C BR1 22 Sep 01:01:57 01:06:12 75° 286° (WNW) 01:10:27 145.865
YUBILEINY 22 Sep 01:05:23 01:13:16 40° 274° (W) 01:21:12 435.215
UKube-1 22 Sep 01:17:02 01:21:09 45° 71° (ENE) 01:25:16 .
DX 1 22 Sep 01:19:23 01:23:43 76° 75° (ENE) 01:28:03 434.975-435.025
Tancredo 1 22 Sep 01:30:36 01:33:01 28° 24° (NNE) 01:35:26 437.200
DUCHIFAT 1 22 Sep 01:31:50 01:35:48 40° 289° (WNW) 01:39:46 145.980
Oscar 19 22 Sep 01:33:58 01:38:20 27° 95° (E) 01:42:40 437.125/150
VELOX 1 22 Sep 01:41:50 01:44:51 18° 267° (W) 01:47:52 145.980
POLYITAN 1 22 Sep 01:42:47 01:46:19 25° 292° (WNW) 01:49:50 437.675
nSIGHT-1 22 Sep 01:45:24 01:47:48 19° 11° (N) 01:50:13 .
EO-79 22 Sep 01:47:50 01:51:09 22° 294° (WNW) 01:54:29 145.935-145.965
PCSat 22 Sep 01:57:46 02:01:09 17° 256° (WSW) 02:04:32 145.827
QB50P2 22 Sep 02:01:20 02:03:53 16° 296° (WNW) 02:06:26 145.880/145.840
O/OREOS (USA 219) 22 Sep 02:03:44 02:07:09 22° 102° (ESE) 02:10:35 437.305
MOZHAYETS 4 22 Sep 02:10:30 02:13:56 21° 65° (ENE) 02:17:22
BUGSAT 1 22 Sep 02:15:10 02:19:14 48° 288° (WNW) 02:23:18 437.445
ITUPSAT 1 22 Sep 02:19:58 02:23:59 28° 66° (ENE) 02:28:01 437.325
M-CUBED/EXP-1 PRIME 22 Sep 02:20:24 02:23:21 29° 295° (WNW) 02:26:13 437.505
50 SAT 22 Sep 02:21:37 02:22:50 12° 268° (W) 02:24:04 437.505
ISS 22 Sep 02:38:14 02:41:09 28° 21° (NNE) 02:44:03 437.550
Gurwin Techsat 1B 22 Sep 02:41:29 02:46:50 78° 103° (ESE) 02:52:08 435.225
UKube-1 22 Sep 02:54:40 02:57:23 16° 267° (W) 03:00:07 .
BEESAT 22 Sep 02:57:11 03:01:52 64° 73° (ENE) 03:06:37 436.000
AO-7 22 Sep 02:58:28 03:04:17 20° 91° (E) 03:10:04 .
Tancredo 1 22 Sep 03:05:08 03:07:33 29° 222° (SW) 03:09:57 437.200
Oscar 19 22 Sep 03:12:58 03:17:43 38° 292° (WNW) 03:22:25 437.125/150
nSIGHT-1 22 Sep 03:21:26 03:24:39 57° 31° (NNE) 03:27:52 .
O/OREOS (USA 219) 22 Sep 03:42:05 03:46:17 38° 299° (WNW) 03:50:32 437.305
MOZHAYETS 4 22 Sep 03:46:24 03:50:46 42° 262° (W) 03:55:12
ITUPSAT 1 22 Sep 03:57:22 04:01:40 33° 263° (W) 04:06:01 437.325
CUBESAT XI-V 22 Sep 04:07:06 04:11:46 68° 74° (ENE) 04:16:28 437.345
ITAMSAT 1 22 Sep 04:13:07 04:18:14 55° 101° (E) 04:23:21 435.822/435.867
ISS 22 Sep 04:14:33 04:17:46 51° 220° (SW) 04:20:58 437.550
KKS-1 22 Sep 04:20:40 04:24:40 34° 69° (ENE) 04:28:41 437.445
Gurwin Techsat 1B 22 Sep 04:23:05 04:26:06 15° 301° (WNW) 04:29:08 435.225
BEESAT 3 22 Sep 04:23:55 04:27:36 34° 49° (NE) 04:31:12 437.485
BEESAT 2 22 Sep 04:27:22 04:29:52 16° 40° (NE) 04:32:20 435.950
BEESAT 22 Sep 04:37:39 04:40:04 14° 270° (W) 04:42:31 436.000
AO-7 22 Sep 04:49:37 04:57:58 84° 290° (WNW) 05:06:15 .
STARS 22 Sep 04:50:41 04:54:27 29° 68° (ENE) 04:58:15 437.465
nSIGHT-1 22 Sep 04:58:24 05:00:42 18° 227° (SW) 05:03:00 .
RS-15 22 Sep 05:09:04 05:20:36 51° 110° (ESE) 05:32:12 29.354- 29.394
DOVE 4 22 Sep 05:11:30 05:14:35 19° 94° (E) 05:17:44 437.250
AO-85 22 Sep 05:15:42 05:19:56 45° 52° (NE) 05:24:28 145.980
CUBESAT XI-V 22 Sep 05:47:30 05:49:35 13° 271° (W) 05:51:41 437.345
CUTE-I 22 Sep 05:49:30 05:52:10 14° 89° (E) 05:54:48 437.470
ITAMSAT 1 22 Sep 05:53:33 05:57:17 20° 298° (WNW) 06:01:01 435.822/435.867
KKS-1 22 Sep 05:57:49 06:01:17 22° 266° (W) 06:04:46 437.445
BEESAT 3 22 Sep 06:01:51 06:04:58 22° 247° (WSW) 06:08:03 437.485
BEESAT 2 22 Sep 06:04:01 06:08:03 70° 239° (WSW) 06:12:02 435.950
XW-2D 22 Sep 06:09:21 06:12:23 22° 94° (E) 06:15:22 145.860 - 145.880
HO-68 22 Sep 06:15:33 06:16:25 10° 85° (E) 06:17:16 435.675
XW-2B 22 Sep 06:21:23 06:24:45 29° 96° (E) 06:28:04 145.730 - 145.750
XW-2F 22 Sep 06:22:54 06:26:14 28° 96° (E) 06:29:32 145.980 - 146.000
STARS 22 Sep 06:27:09 06:30:46 26° 264° (W) 06:34:25 437.465
STRAND 1 22 Sep 06:29:55 06:34:17 30° 66° (ENE) 06:38:40 437.568
XW-2C 22 Sep 06:42:20 06:46:06 54° 100° (E) 06:49:49 145.795 - 145.815
AO-7 22 Sep 06:43:51 06:49:34 21° 310° (NW) 06:55:18 .
DOVE 4 22 Sep 06:48:32 06:52:23 36° 289° (WNW) 06:56:23 437.250
NUDT-PHONESAT 22 Sep 06:52:05 06:55:44 49° 100° (E) 06:59:20 437.300
LilacSat-2 22 Sep 06:52:22 06:56:14 79° 102° (ESE) 07:00:02 437.200
AO-85 22 Sep 06:56:37 07:00:08 22° 247° (WSW) 07:03:50 145.980
KAITUO 1B 22 Sep 07:17:37 07:21:22 73° 285° (WNW) 07:25:04 145.475/437.950
RS-15 22 Sep 07:20:59 07:33:03 57° 314° (NW) 07:45:07 29.354- 29.394
CUTE-I 22 Sep 07:27:26 07:32:46 76° 287° (WNW) 07:38:05 437.470
XW-2A 22 Sep 07:35:26 07:37:28 15° 93° (E) 07:39:28 145.665 - 145.685
FO-29 22 Sep 07:36:43 07:40:04 16° 61° (ENE) 07:43:17 435.910
XW-2D 22 Sep 07:43:18 07:46:31 26° 291° (WNW) 07:49:42 145.860 - 145.880
SEEDS 22 Sep 07:47:28 07:51:20 35° 97° (E) 07:55:08 437.485
ZACube-1 22 Sep 07:51:02 07:52:40 12° 88° (E) 07:54:18 437.345
XW-2B 22 Sep 07:55:54 07:58:45 20° 292° (WNW) 08:01:34 145.730 - 145.750
XW-2F 22 Sep 07:57:21 08:00:10 20° 292° (WNW) 08:02:58 145.980 - 146.000
HO-68 22 Sep 07:58:14 08:05:25 67° 103° (ESE) 08:12:33 435.675
STRAND 1 22 Sep 08:08:45 08:13:21 34° 263° (W) 08:17:59 437.568
CUTE 1.7 + AOD 2 22 Sep 08:11:50 08:16:05 75° 283° (WNW) 08:20:15 437.475
AAUSAT CUBESAT 2 22 Sep 08:15:35 08:19:17 31° 96° (E) 08:22:57 437.432
XW-2C 22 Sep 08:18:20 08:19:48 12° 296° (WNW) 08:21:15 145.795 - 145.815
CUBEBUG 2 22 Sep 08:22:34 08:27:17 79° 102° (ESE) 08:32:03 437.445
NUDT-PHONESAT 22 Sep 08:27:36 08:29:09 12° 296° (WNW) 08:30:41 437.300
UWE-3 22 Sep 08:33:14 08:37:51 60° 100° (E) 08:42:28 435.000/436.395/437.385
TIGRISAT 22 Sep 08:40:45 08:43:19 16° 63° (ENE) 08:45:56 435.000
XW-2A 22 Sep 09:07:12 09:10:16 30° 289° (WNW) 09:13:18 145.665 - 145.685
CUTE-I 22 Sep 09:10:23 09:11:54 11° 304° (NW) 09:13:25 437.470
FO-29 22 Sep 09:18:55 09:24:42 70° 257° (WSW) 09:30:01 435.910
AO-73 22 Sep 09:23:01 09:27:37 84° 284° (WNW) 09:32:11 145.935
SEEDS 22 Sep 09:23:40 09:26:46 20° 293° (WNW) 09:29:52 437.485
Oscar 11 22 Sep 09:24:12 09:28:33 71° 102° (ESE) 09:32:52 .
ZACube-1 22 Sep 09:24:50 09:29:25 72° 285° (WNW) 09:33:58 437.345
RS-15 22 Sep 09:39:06 09:49:04 27° 345° (NNW) 09:58:54 29.354- 29.394
PRISM 22 Sep 09:44:05 09:47:56 41° 71° (ENE) 09:51:48 437.425
HO-68 22 Sep 09:46:51 09:52:34 26° 302° (WNW) 09:58:16 435.675
Max Valier Satellite 22 Sep 09:50:29 09:53:25 21° 94° (E) 09:56:18 145.860
UNISAT 6 22 Sep 09:50:59 09:55:18 90° 291° (WNW) 09:59:45 437.425
AAUSAT CUBESAT 2 22 Sep 09:51:24 09:54:34 22° 293° (WNW) 09:57:42 437.432
DELFI C3 22 Sep 09:59:39 10:03:19 37° 98° (E) 10:06:57 145.870
CUBEBUG 2 22 Sep 10:01:15 10:03:16 13° 299° (WNW) 10:05:17 437.445
UWE-3 22 Sep 10:11:01 10:13:48 16° 297° (WNW) 10:16:36 435.000/436.395/437.385
TIGRISAT 22 Sep 10:15:19 10:19:32 53° 261° (W) 10:23:52 435.000
DUCHIFAT 1 22 Sep 10:49:59 10:52:24 15° 64° (ENE) 10:54:50 145.980
EO-88 22 Sep 10:54:19 10:58:00 80° 284° (WNW) 11:01:38 145.990 - 145.960
AIST 2D 22 Sep 10:55:25 10:58:51 48° 74° (ENE) 11:02:18 435.315
POLYITAN 1 22 Sep 11:00:07 11:03:31 24° 67° (ENE) 11:06:56 437.675
Oscar 11 22 Sep 11:02:24 11:04:05 12° 299° (WNW) 11:05:45 .
EO-79 22 Sep 11:04:42 11:08:15 27° 68° (ENE) 11:11:48 145.935-145.965
QB50P2 22 Sep 11:17:15 11:21:12 40° 71° (ENE) 11:25:10 145.880/145.840
ESTCUBE 1 22 Sep 11:18:09 11:21:10 17° 92° (E) 11:24:09 437.505/2401.250
PRISM 22 Sep 11:20:46 11:23:23 16° 267° (W) 11:26:00 437.425
Max Valier Satellite 22 Sep 11:24:03 11:27:12 26° 290° (WNW) 11:30:20 145.860
M-CUBED/EXP-1 PRIME 22 Sep 11:31:45 11:35:26 28° 65° (ENE) 11:38:55 437.505
BUGSAT 1 22 Sep 11:32:50 11:34:09 11° 62° (ENE) 11:35:28 437.445
DELFI C3 22 Sep 11:35:13 11:37:46 17° 294° (WNW) 11:40:19 145.870
NANOSAT C BR1 22 Sep 11:54:03 11:58:15 85° 74° (ENE) 12:02:29 145.865
LO-87 22 Sep 11:55:45 11:59:21 71° 101° (ESE) 12:02:57 145.935 - 145.965
RS-15 22 Sep 11:56:44 12:06:56 29° 20° (NNE) 12:16:45 29.354- 29.394
SPROUT 22 Sep 12:05:50 12:08:00 14° 91° (E) 12:10:09 437.525
YUBILEINY 22 Sep 12:09:52 12:18:10 52° 89° (E) 12:26:28 435.215
O/OREOS (USA 219) 22 Sep 12:11:49 12:16:17 47° 63° (ENE) 12:20:44 437.305
DUCHIFAT 1 22 Sep 12:23:35 12:27:38 50° 260° (W) 12:31:44 145.980
Gurwin Techsat 1B 22 Sep 12:25:35 12:29:08 19° 61° (ENE) 12:32:41 435.225
AIST 2D 22 Sep 12:31:53 12:32:19 10° 270° (W) 12:32:43 435.315
POLYITAN 1 22 Sep 12:35:28 12:39:09 29° 264° (W) 12:42:53 437.675
EO-79 22 Sep 12:40:24 12:43:56 26° 264° (W) 12:47:31 145.935-145.965
Oscar 19 22 Sep 12:51:07 12:56:01 43° 69° (ENE) 13:00:55 437.125/150
ESTCUBE 1 22 Sep 12:53:53 12:58:11 45° 289° (WNW) 13:02:27 437.505/2401.250
QB50P2 22 Sep 12:54:19 12:57:09 18° 268° (W) 13:00:01 145.880/145.840
BUGSAT 1 22 Sep 13:04:58 13:08:57 65° 259° (W) 13:12:59 437.445
M-CUBED/EXP-1 PRIME 22 Sep 13:06:06 13:09:47 27° 258° (WSW) 13:13:16 437.505
DX 1 22 Sep 13:08:49 13:10:32 12° 90° (E) 13:12:14 434.975-435.025
NO-84 22 Sep 13:14:18 13:17:55 37° 133° (SE) 13:21:16 435.350 FM
VELOX 1 22 Sep 13:29:13 13:33:37 80° 101° (ESE) 13:38:01 145.980
50 SAT 22 Sep 13:38:55 13:41:54 30° 98° (E) 13:44:51 437.505
SPROUT 22 Sep 13:40:00 13:44:12 54° 287° (WNW) 13:48:23 437.525
O/OREOS (USA 219) 22 Sep 13:52:12 13:55:17 18° 260° (W) 13:58:23 437.305
ITAMSAT 1 22 Sep 13:55:54 13:58:09 13° 57° (ENE) 14:00:23 435.822/435.867
AO-7 22 Sep 13:57:56 14:05:06 34° 57° (ENE) 14:12:15 .
Gurwin Techsat 1B 22 Sep 14:03:18 14:08:33 64° 258° (WSW) 14:13:51 435.225
SO-50 22 Sep 14:05:05 14:09:11 36° 116° (ESE) 14:13:19 436.795
YUBILEINY 22 Sep 14:07:23 14:15:12 36° 290° (WNW) 14:23:04 435.215
RS-15 22 Sep 14:10:15 14:22:18 67° 50° (NE) 14:33:39 29.354- 29.394
Oscar 19 22 Sep 14:31:17 14:35:28 24° 266° (W) 14:39:41 437.125/150
UKube-1 22 Sep 14:38:51 14:43:10 77° 102° (ESE) 14:47:28 .
DX 1 22 Sep 14:42:49 14:47:07 62° 286° (WNW) 14:51:23 434.975-435.025
